This demonstration page uses our WeatherBlox Daily Observations layout. Learn more.

Left ArrowRight Arrow

38.88101, -77.10428

Hourly Observations for August 22, 2020

Temp ( °F °C ) Dew Point ( °F °C ) Humidity (%) Winds ( mph kmh ) Pressure ( in mb ) Visibility ( mi km ) Precip ( " mm )
12:52 am 00:52 Cloudy 76 24.4 72 22.2 88 88 S 8 13 29.96 1015 10 16.0934 0.001 0.001
1:52 am 01:52 Cloudy 76 24.4 71 21.7 85 85 SSW 8 13 29.95 1014 10 16.0934 0 0
2:52 am 02:52 Cloudy with Light Rain 76 24.4 70 21.1 82 82 SSW 6 9 29.96 1014 10 16.0934 0.001 0.001
3:14 am 03:14 Cloudy 75 23.9 71 21.7 88 88 SSW 5 7 29.95 1014 10 16.0934 0.001 0.001
3:34 am 03:34 Cloudy with Light Rain 75 23.9 71 21.7 88 88 S 6 9 29.95 1014 10 16.0934 0.001 0.001
3:52 am 03:52 Cloudy 75 23.9 71 21.7 88 88 S 6 9 29.95 1014 10 16.0934 0.001 0.001
4:37 am 04:37 Cloudy 76 24.4 72 22.2 88 88 S 6 9 29.95 1014 10 16.0934 0 0
4:52 am 04:52 Cloudy 75 23.9 71 21.7 88 88 SSW 9 15 29.95 1014 10 16.0934 0 0
4:59 am 04:59 Cloudy 75 23.9 71 21.7 88 88 SSW 6 9 29.95 1014 10 16.0934 0 0
5:52 am 05:52 Cloudy 75 23.9 71 21.7 88 88 SSW 7 11 29.94 1014 10 16.0934 0 0
6:52 am 06:52 Cloudy 74 23.3 71 21.7 91 91 SSW 7 11 29.96 1015 10 16.0934 0.001 0.001
7:04 am 07:04 Mostly Cloudy 75 23.9 71 21.7 88 88 S 8 13 29.97 1015 10 16.0934 0 0
7:43 am 07:43 Cloudy 75 23.9 71 21.7 88 88 S 9 15 29.97 1015 10 16.0934 0 0
7:46 am 07:46 Cloudy 75 24 72 22 89 89 S 8 13 29.97 1015 10 16.0934 0 0
7:52 am 07:52 Cloudy 75 23.9 71 21.7 88 88 SSW 7 11 29.97 1015 10 16.0934 0 0
8:52 am 08:52 Cloudy 76 24.4 71 21.7 85 85 SSW 3 6 29.98 1015 10 16.0934 0 0
9:45 am 09:45 Cloudy 77 25 72 22.2 85 85 Calm 29.99 1015 10 16.0934 0 0
9:52 am 09:52 Cloudy with Light Rain 77 25 72 22.2 85 85 Calm 29.99 1016 10 16.0934 0.001 0.001
10:52 am 10:52 Mostly Cloudy 79 26.1 73 22.8 82 82 S 9 15 29.99 1016 10 16.0934 0.001 0.001
11:52 am 11:52 Mostly Cloudy 80 26.7 71 21.7 74 74 S 8 13 29.99 1016 10 16.0934 0 0
12:52 pm 12:52 Mostly Cloudy 82 27.8 71 21.7 69 69 S 7 11 29.98 1015 10 16.0934 0 0
1:52 pm 13:52 Mostly Cloudy 82 27.8 70 21.1 67 67 SSE 6 9 29.98 1015 10 16.0934 0 0
2:52 pm 14:52 Cloudy 83 28.3 71 21.7 67 67 S 7 11 29.98 1015 10 16.0934 0 0
3:52 pm 15:52 Cloudy 84 28.9 72 22.2 67 67 S 8 13 29.97 1015 10 16.0934 0 0
4:52 pm 16:52 Mostly Cloudy 82 27.8 71 21.7 69 69 S 10 17 29.96 1015 10 16.0934 0 0
5:52 pm 17:52 Cloudy 82 27.8 70 21.1 67 67 SSE 6 9 29.97 1015 10 16.0934 0 0
6:52 pm 18:52 Mostly Cloudy 82 27.8 70 21.1 67 67 S 10 17 29.96 1015 10 16.0934 0 0
7:52 pm 19:52 Mostly Cloudy 80 26.7 71 21.7 74 74 S 9 15 29.98 1015 10 16.0934 0 0
8:52 pm 20:52 Mostly Cloudy 78 25.6 72 22.2 82 82 S 9 15 29.98 1015 10 16.0934 0 0
9:52 pm 21:52 Mostly Cloudy 78 25.6 72 22.2 82 82 SSE 6 9 30.01 1016 10 16.0934 0 0
10:52 pm 22:52 Cloudy 77 25 73 22.8 88 88 S 7 11 30.02 1017 10 16.0934 0 0
11:52 pm 23:52 Clear 77 25 73 22.8 88 88 S 8 13 30.03 1017 10 16.0934 0 0

Powered by AerisWeather